ALCOMSAT 1 (43039 NORAD) Tracking and Keplerian Element Data

This shows tracking and keplerian element data for the satellite.

Feedback or suggestion? Click here.




ElementValue
Catalog43039
NameALCOMSAT 1
Epoch Orbit383
Epoch Day351.82889226
Epoch Year2018
RAAN304.1359
Inclination0.0306
Eccentricity0.0001965
Argument of Perigee286.8545
Mean Anonmoly129.0094
Mean Motion1.00270316
Decay Rate-1.7E-06
L11 43039U 17078A 18351.82889226 -.00000170 00000-0 00000-0 0 9994
L22 43039 0.0306 304.1359 0001965 286.8545 129.0094 1.00270316 3833

Live tracking and technical data element details for ALCOMSAT 1 (NORAD 43039). ALCOMSAT 1 can be tracked NOW for your location showing map with azimuth and elevation plus other details from your city location.

Track the satellite on the map from your city or location and see movement details for azimuth, elevation, latitude, longitude, range, height, and movement on the map or in text.







IsCatalogInMostPopularTable: catalog: 43039, numindb: 156
Update: records affected: 1



GetName: 43039 ALCOMSAT 1

Hit Count: updated at: Wed, 19 Dec 2018 15:57:08 GMT